GFSNIL_sfc_temp_132.txt.gz
Temp
69 68 67 67 66 65 64 64 67 67 66 67 67 65 64 64 64 62 62 62 60 60
64 63 63 63 64 63 63 67 66 65 66 66 67 66 65 63 62 62 61 61 60 59
62 62 62 62 63 61 61 62 64 63 63 65 65 65 64 63 62 61 61 62 61 60
62 62 61 60 60 60 62 63 65 64 64 62 62 62 62 62 63 62 61 61 61 61
61 61 60 60 60 60 61 63 65 65 65 66 65 63 62 62 61 61 60 61 60 60
59 59 59 59 60 59 59 60 60 62 63 64 62 61 60 60 61 59 58 58 58 58
56 56 56 57 57 57 59 57 58 58 59 59 60 60 61 61 56 55 57 58 56 56
57 56 57 55 54 54 54 54 55 55 55 55 56 61 53 53 51 50 51 52 54 55
56 55 52 51 50 50 49 49 49 50 50 49 56 49 49 49 47 47 47 46 49 50
54 52 49 49 48 46 44 44 44 45 46 46 46 47 46 48 44 44 44 45 46 49
50 48 47 45 43 42 41 40 41 42 42 43 46 46 44 46 45 44 44 44 45 45
47 45 44 41 39 39 39 40 40 42 42 41 42 44 43 43 42 43 45 45 45 45
43 41 40 37 37 37 38 40 43 42 42 43 42 43 42 42 43 41 42 44 45 46
39 37 38 37 38 40 40 40 40 40 41 42 43 43 42 42 42 42 43 44 45 47

GFSNIL_sfc_temp_138.txt.gz
Temp
62 62 61 61 61 60 61 62 64 65 66 67 67 67 66 65 65 64 64 63 63 63
60 60 60 60 60 60 61 63 63 63 63 64 64 64 64 63 63 63 63 63 63 62
59 60 60 59 59 59 60 61 62 62 61 62 62 62 62 62 63 63 63 64 63 63
58 58 58 57 57 57 58 58 60 60 60 61 60 60 59 60 63 61 61 63 63 62
56 55 54 54 54 55 55 56 57 58 58 59 59 58 58 59 60 61 60 61 60 60
53 53 51 51 51 52 53 53 53 54 54 54 56 56 56 57 57 56 56 57 56 56
50 50 50 49 49 50 50 50 50 51 52 52 53 55 53 53 52 52 53 53 54 54
50 49 49 48 47 47 47 47 48 48 49 49 50 55 50 50 50 50 50 51 51 53
49 49 47 46 45 45 44 44 44 44 44 44 48 46 46 47 47 47 47 46 48 49
47 46 45 45 43 41 40 40 40 41 42 42 43 44 44 45 45 44 44 44 45 46
44 43 42 41 40 38 38 38 38 40 41 41 43 43 43 43 44 44 44 44 44 44
41 40 39 38 37 38 38 38 40 41 41 41 42 42 42 43 44 44 45 46 47 46
39 38 38 38 38 39 39 39 41 43 43 42 43 43 42 42 42 42 43 45 46 46
38 38 39 38 38 37 38 40 41 41 43 43 44 44 42 42 42 42 42 43 45 47

GFSNIL_sfc_temp_141.txt.gz
Temp
70 72 71 70 69 69 70 72 72 72 72 72 72 72 71 70 68 69 69 71 70 71
68 68 66 67 69 71 70 72 70 70 70 70 71 70 70 71 70 70 70 70 71 71
68 69 68 68 67 67 68 69 69 69 69 69 69 69 69 70 71 70 73 73 70 71
66 68 67 66 66 66 65 66 67 67 67 67 66 66 66 67 68 68 68 69 68 69
63 63 61 60 63 64 63 64 64 65 65 65 65 65 64 64 65 64 64 65 66 67
60 61 60 60 60 61 61 61 61 62 62 62 62 62 63 63 63 63 63 63 63 64
59 59 59 59 58 58 58 58 58 58 58 58 58 59 61 60 58 59 61 61 61 61
58 58 58 56 56 55 55 55 55 55 55 55 56 59 52 54 55 55 56 57 59 59
57 57 55 54 54 53 53 53 53 52 53 53 56 45 45 47 52 53 53 53 55 56
54 53 52 52 52 50 50 51 51 51 52 52 53 44 43 45 52 51 51 50 51 53
51 50 50 50 49 49 50 50 50 50 51 51 53 44 42 43 52 51 50 49 49 49
50 49 49 49 49 49 50 50 50 53 52 52 53 45 43 45 49 51 51 53 52 50
49 49 49 49 49 49 50 51 51 50 50 49 51 45 43 43 45 43 46 49 52 49
48 48 48 48 48 47 49 47 47 50 51 51 50 52 43 42 43 43 44 45 49 53

GFSNIL_sfc_temp_144.txt.gz
Temp
79 81 80 77 79 78 79 78 76 76 77 75 76 77 77 80 76 74 73 73 77 81
75 75 74 73 74 77 76 77 74 75 72 75 76 75 73 78 75 75 77 75 74 74
75 75 75 74 72 72 72 74 71 71 74 73 74 73 72 75 76 73 76 77 72 72
74 73 73 72 72 71 71 72 72 72 73 72 72 71 70 70 73 71 71 72 73 72
71 69 69 69 68 69 68 70 69 71 71 71 71 70 68 69 70 69 68 69 69 70
67 67 65 63 65 65 66 64 65 67 66 67 67 67 67 67 68 66 65 66 66 67
65 66 66 65 64 63 63 63 63 64 64 64 64 65 62 61 61 62 63 63 63 64
66 65 64 62 63 62 62 62 62 62 62 62 63 60 55 57 59 59 60 61 62 63
62 63 61 60 61 61 60 60 61 60 61 60 63 46 46 48 55 58 57 55 56 56
62 61 60 60 60 58 58 58 59 59 60 59 60 46 45 46 56 57 55 54 53 53
61 59 60 59 58 57 58 58 58 59 59 59 60 46 44 45 56 56 57 56 54 53
59 58 59 57 57 57 57 56 57 57 57 56 57 46 45 46 49 51 52 56 58 57
58 58 57 56 56 56 56 57 58 58 58 54 55 49 45 47 53 50 52 55 57 52
58 57 56 55 56 55 55 56 55 54 55 56 56 57 46 44 54 51 48 51 57 61

GFSNIL_sfc_temp_147.txt.gz
Temp
78 78 76 76 79 80 82 79 78 78 77 78 77 77 76 77 80 76 76 74 75 73
77 76 76 76 78 79 78 80 77 76 76 76 76 75 74 76 75 76 75 74 76 75
77 77 76 75 73 73 74 75 75 75 75 75 75 74 72 73 74 73 74 75 73 73
76 75 75 74 74 73 72 73 74 74 74 73 73 73 70 69 71 71 70 71 71 70
73 73 70 70 70 70 69 71 69 70 70 70 71 69 68 68 68 68 67 67 66 66
72 71 69 68 68 69 68 68 68 68 68 68 68 67 66 64 63 63 64 64 64 64
68 68 67 66 67 66 67 66 66 66 67 67 67 64 61 61 61 61 63 63 62 61
66 67 64 65 65 65 64 63 64 64 66 66 67 60 56 57 58 59 61 61 60 60
67 67 64 64 63 63 63 63 64 64 64 63 63 47 47 49 54 57 57 58 57 58
67 66 65 65 64 62 61 62 62 62 63 61 54 47 46 47 57 57 57 57 57 57
66 65 65 63 61 60 61 60 61 61 61 60 58 46 46 47 58 57 57 56 56 56
65 63 63 61 60 58 59 60 61 62 60 59 60 48 45 49 56 56 56 59 59 58
63 62 60 59 58 58 60 60 61 59 60 56 59 49 46 49 58 57 57 57 57 54
62 61 59 58 57 58 58 57 57 57 58 61 58 58 45 45 54 52 50 53 56 59